Terug naar catalogus

SL-16 DEB

ActiefLEO
NORAD 20626·DEBRIS·🇷🇺 Russia

Gelanceerd May 22, 1990 vanaf Baikonur Cosmodrome

Loading…

Volgende Passages (komende 24 uur)

TLE

VersSource: Space-Track

Epoch: Sep 14, 2026, 09:18 UTC

1 20626U 90046C   26257.38771492 -.00000027  00000-0  14273-4 0  9999
2 20626  71.0172  31.6840 0206031  16.8124  14.2778 13.72982582818342

Volg SL-16 DEB in realtime met AllMySat

Download on the App Store